Find Starlink 31341

NORAD ID: 59155 Int'l Des: 2024-044 Owner: SPXS Country: US Constellation: starlink operational
LEOCIRCULAR

現在のビュー

3D地球を読み込み中...

About Starlink 31341

Starlink 31341 (NORAD 59155) is a starlink constellation satellite (v2 mini) launched Mar 4, 2024 by SPXS of US. It operates in LEO, CIRCULAR orbit with a mass of 730.00 kg.

次回通過

Passes for default location (London). Set your location on the main map for personalized predictions.

高度履歴

Loading altitude history...

軌道要素

1 59155U 24044D 26262.89481952 .00001653 00000-0 69610-4 0 9994
2 59155 43.0019 93.9718 0001645 268.6226 91.4438 15.27569884143225
Epoch: Sep 19, 2026 • Age: 19 hours

現在のステータス

高度 484.7 km
遠地点 / 近地点 N/A
速度 7.63 km/s
衛星直下点 30.79°N, 22.85°W
打ち上げ日 Mar 4, 2024
運用期間 2.5 years
タイプ internet

技術仕様

分類 Payload
質量 730.00 kg
乾燥質量 700.00 kg
長さ 0.30 m
スパン 29.00 m
形状 ? Box + pan
製造者 SPXS
バスタイプ Starlink V2M
フェーズステータス In Orbit
所有者/国 SPXS/US

Most Searched